Satellite: AO-07
Catalog number: 07530
Epoch time: 12060.60976882
Element set: 0320
Inclination: 101.4008 deg
RA of node: 062.0262 deg
Eccentricity: 0.0012068
Arg of perigee: 134.9699 deg
Mean anomaly: 225.2353 deg
Mean motion: 12.53587865 rev/day
Decay rate: -2.7e-07 rev/day^2
Epoch rev: 70644
Checksum: 286
Satellite: FO-29
Catalog number: 24278
Epoch time: 12060.92162850
Element set: 0786
Inclination: 098.5745 deg
RA of node: 175.7823 deg
Eccentricity: 0.0350131
Arg of perigee: 309.7556 deg
Mean anomaly: 047.3219 deg
Mean motion: 13.52977759 rev/day
Decay rate: 3.1e-07 rev/day^2
Epoch rev: 76731
Checksum: 336
Satellite: SO-33
Catalog number: 25509
Epoch time: 12060.75459216
Element set: 0176
Inclination: 031.4341 deg
RA of node: 227.2765 deg
Eccentricity: 0.0352975
Arg of perigee: 334.4539 deg
Mean anomaly: 023.9100 deg
Mean motion: 14.28671921 rev/day
Decay rate: 2.10e-06 rev/day^2
Epoch rev: 69713
Checksum: 293
Satellite: RS-22
Catalog number: 27939
Epoch time: 12061.41734159
Element set: 131
Inclination: 097.8213 deg
RA of node: 267.7101 deg
Eccentricity: 0.0012476
Arg of perigee: 245.4717 deg
Mean anomaly: 114.5182 deg
Mean motion: 14.63913083 rev/day
Decay rate: 5.12e-06 rev/day^2
Epoch rev: 45011
Checksum: 276
Satellite: VO-52
Catalog number: 28650
Epoch time: 12060.61535433
Element set: 37
Inclination: 097.6105 deg
RA of node: 096.8339 deg
Eccentricity: 0.0027475
Arg of perigee: 039.4636 deg
Mean anomaly: 320.8570 deg
Mean motion: 14.82701029 rev/day
Decay rate: 1.207e-05 rev/day^2
Epoch rev: 36888
Checksum: 310
Satellite: HO-68
Catalog number: 36122
Epoch time: 12061.28486997
Element set: 245
Inclination: 100.3763 deg
RA of node: 122.7528 deg
Eccentricity: 0.0007579
Arg of perigee: 357.9692 deg
Mean anomaly: 002.1411 deg
Mean motion: 13.16293437 rev/day
Decay rate: -4.4e-07 rev/day^2
Epoch rev: 10619
Checksum: 303
/EX
SB KEPS @ AMSAT $ORB12061.D
Orbital Elements 12061.MICROS
HR AMSAT ORBITAL ELEMENTS FOR THE MICROSATS
FROM WA5QGD FORT WORTH,TX March 1, 2012
Send SUBSCRIBE KEPS/UNSUBSCRIBE KEPS to majordomo(a)amsat.org only
BID: ORB12061.D
TO ALL RADIO AMATEURS BT
Satellite: UO-11
Catalog number: 14781
Epoch time: 12060.97579699
Element set: 0802
Inclination: 097.9686 deg
RA of node: 121.3820 deg
Eccentricity: 0.0009709
Arg of perigee: 029.7279 deg
Mean anomaly: 330.4483 deg
Mean motion: 14.80322965 rev/day
Decay rate: 2.88e-06 rev/day^2
Epoch rev: 50392
Checksum: 338
Satellite: AO-16
Catalog number: 20439
Epoch time: 12060.85795645
Element set: 0417
Inclination: 098.4188 deg
RA of node: 007.3301 deg
Eccentricity: 0.0011603
Arg of perigee: 117.1176 deg
Mean anomaly: 243.1193 deg
Mean motion: 14.32020640 rev/day
Decay rate: 8.7e-07 rev/day^2
Epoch rev: 15449
Checksum: 276
Satellite: LO-19
Catalog number: 20442
Epoch time: 12060.96733881
Element set: 0334
Inclination: 098.3841 deg
RA of node: 010.8262 deg
Eccentricity: 0.0012583
Arg of perigee: 109.2130 deg
Mean anomaly: 251.0417 deg
Mean motion: 14.32241709 rev/day
Decay rate: 1.87e-06 rev/day^2
Epoch rev: 15469
Checksum: 277
Satellite: AO-27
Catalog number: 22825
Epoch time: 12060.89062621
Element set: 44
Inclination: 098.5632 deg
RA of node: 005.4526 deg
Eccentricity: 0.0007748
Arg of perigee: 234.7967 deg
Mean anomaly: 125.2510 deg
Mean motion: 14.29432744 rev/day
Decay rate: 3.2e-07 rev/day^2
Epoch rev: 96100
Checksum: 286
Satellite: IO-26
Catalog number: 22826
Epoch time: 12060.84215552
Element set: 0801
Inclination: 098.5582 deg
RA of node: 005.8042 deg
Eccentricity: 0.0008126
Arg of perigee: 230.1907 deg
Mean anomaly: 129.8559 deg
Mean motion: 14.29703803 rev/day
Decay rate: 8.4e-07 rev/day^2
Epoch rev: 96112
Checksum: 291
Satellite: GO-32
Catalog number: 25397
Epoch time: 12060.50151316
Element set: 0716
Inclination: 098.3531 deg
RA of node: 044.6213 deg
Eccentricity: 0.0000587
Arg of perigee: 201.6337 deg
Mean anomaly: 158.4834 deg
Mean motion: 14.23258781 rev/day
Decay rate: 1.0e-08 rev/day^2
Epoch rev: 70856
Checksum: 280
Satellite: NO-44
Catalog number: 26931
Epoch time: 12060.40649451
Element set: 0982
Inclination: 067.0526 deg
RA of node: 040.6939 deg
Eccentricity: 0.0006500
Arg of perigee: 277.5540 deg
Mean anomaly: 082.4823 deg
Mean motion: 14.29763051 rev/day
Decay rate: -1.39e-06 rev/day^2
Epoch rev: 54369
Checksum: 304
Satellite: SO-50
Catalog number: 27607
Epoch time: 12060.69588529
Element set: 0701
Inclination: 064.5580 deg
RA of node: 264.8953 deg
Eccentricity: 0.0085162
Arg of perigee: 269.6965 deg
Mean anomaly: 089.4355 deg
Mean motion: 14.72228417 rev/day
Decay rate: 2.69e-06 rev/day^2
Epoch rev: 49399
Checksum: 359
Satellite: CO-55
Catalog number: 27844
Epoch time: 12060.55653617
Element set: 0321
Inclination: 098.7054 deg
RA of node: 070.5104 deg
Eccentricity: 0.0009599
Arg of perigee: 171.7752 deg
Mean anomaly: 188.3593 deg
Mean motion: 14.20967497 rev/day
Decay rate: 1.74e-06 rev/day^2
Epoch rev: 44946
Checksum: 335
Satellite: CO-57
Catalog number: 27848
Epoch time: 12060.54145164
Element set: 0270
Inclination: 098.7140 deg
RA of node: 069.7823 deg
Eccentricity: 0.0009375
Arg of perigee: 175.7139 deg
Mean anomaly: 184.4116 deg
Mean motion: 14.20726656 rev/day
Decay rate: 1.55e-06 rev/day^2
Epoch rev: 44940
Checksum: 316
Satellite: AO-51
Catalog number: 28375
Epoch time: 12060.47568902
Element set: 0208
Inclination: 098.1326 deg
RA of node: 030.8891 deg
Eccentricity: 0.0084556
Arg of perigee: 010.7862 deg
Mean anomaly: 349.5121 deg
Mean motion: 14.40900887 rev/day
Decay rate: 1.67e-06 rev/day^2
Epoch rev: 40311
Checksum: 300
Satellite: CP3
Catalog number: 31129
Epoch time: 12060.55298678
Element set: 0105
Inclination: 097.8885 deg
RA of node: 074.7236 deg
Eccentricity: 0.0102854
Arg of perigee: 100.9806 deg
Mean anomaly: 260.2992 deg
Mean motion: 14.52902702 rev/day
Decay rate: 4.71e-06 rev/day^2
Epoch rev: 25820
Checksum: 302
Satellite: CO-65
Catalog number: 32785
Epoch time: 12060.67114215
Element set: 0242
Inclination: 097.8144 deg
RA of node: 124.2437 deg
Eccentricity: 0.0015539
Arg of perigee: 059.1568 deg
Mean anomaly: 301.1180 deg
Mean motion: 14.82710110 rev/day
Decay rate: 1.077e-05 rev/day^2
Epoch rev: 20768
Checksum: 279
Satellite: PRISM
Catalog number: 33493
Epoch time: 12061.41670056
Element set: 472
Inclination: 098.1541 deg
RA of node: 199.5648 deg
Eccentricity: 0.0018167
Arg of perigee: 287.0134 deg
Mean anomaly: 072.9157 deg
Mean motion: 14.83258962 rev/day
Decay rate: 2.195e-05 rev/day^2
Epoch rev: 16777
Checksum: 324
Satellite: SOHLA-1
Catalog number: 33496
Epoch time: 12060.93918549
Element set: 0663
Inclination: 098.0934 deg
RA of node: 173.4692 deg
Eccentricity: 0.0007209
Arg of perigee: 032.2895 deg
Mean anomaly: 327.8752 deg
Mean motion: 14.69876304 rev/day
Decay rate: 3.37e-06 rev/day^2
Epoch rev: 16634
Checksum: 335
Satellite: SO-67
Catalog number: 35870
Epoch time: 12061.33017231
Element set: 729
Inclination: 097.2471 deg
RA of node: 100.8648 deg
Eccentricity: 0.0002141
Arg of perigee: 149.0078 deg
Mean anomaly: 339.7423 deg
Mean motion: 15.22875381 rev/day
Decay rate: 3.464e-05 rev/day^2
Epoch rev: 13619
Checksum: 297
